Total_Precipitation_Accumulation
0.07 0.07 0.07 0.07 0.07 0.08 0.10 0.15 0.21 0.18 0.11 0.06 0.05 0.08 0.16 0.22 0.25 0.28 0.26 0.12 0.07 0.05 0.04 0.07 0.10 0.13 0.17 0.19 0.20 0.20 0.19 0.18 0.21 0.28 0.36 0.42 0.44 0.42
0.08 0.07 0.07 0.07 0.09 0.10 0.12 0.14 0.21 0.26 0.22 0.11 0.07 0.10 0.18 0.22 0.28 0.30 0.26 0.22 0.15 0.10 0.09 0.20 0.30 0.30 0.30 0.28 0.24 0.26 0.27 0.26 0.25 0.27 0.33 0.38 0.42 0.45
0.06 0.07 0.07 0.07 0.09 0.10 0.13 0.18 0.22 0.29 0.30 0.14 0.10 0.15 0.23 0.27 0.31 0.31 0.27 0.25 0.21 0.20 0.15 0.24 0.49 0.69 0.61 0.48 0.39 0.34 0.34 0.35 0.34 0.34 0.38 0.42 0.43 0.42
0.06 0.07 0.06 0.07 0.08 0.10 0.14 0.16 0.19 0.24 0.30 0.24 0.16 0.19 0.24 0.32 0.39 0.39 0.37 0.32 0.28 0.32 0.29 0.28 0.45 0.85 0.94 0.71 0.61 0.51 0.44 0.43 0.42 0.44 0.45 0.45 0.42 0.42
0.07 0.08 0.08 0.10 0.11 0.12 0.16 0.18 0.20 0.22 0.31 0.36 0.28 0.24 0.28 0.39 0.49 0.48 0.39 0.35 0.29 0.30 0.32 0.35 0.48 1.00 1.36 1.14 0.87 0.77 0.63 0.55 0.49 0.49 0.53 0.52 0.45 0.38
0.06 0.09 0.10 0.13 0.15 0.16 0.17 0.19 0.24 0.27 0.28 0.31 0.30 0.30 0.34 0.42 0.49 0.54 0.43 0.36 0.29 0.22 0.28 0.36 0.50 0.98 1.54 1.74 1.39 1.11 0.90 0.73 0.61 0.53 0.51 0.48 0.42 0.34
0.06 0.09 0.09 0.12 0.16 0.17 0.18 0.23 0.30 0.33 0.31 0.29 0.29 0.31 0.37 0.43 0.43 0.42 0.39 0.33 0.23 0.20 0.21 0.29 0.51 1.14 1.68 2.02 1.93 1.43 1.05 0.85 0.70 0.59 0.53 0.47 0.41 0.34
0.10 0.08 0.05 0.06 0.07 0.12 0.18 0.22 0.28 0.32 0.35 0.36 0.34 0.28 0.28 0.32 0.33 0.36 0.33 0.30 0.24 0.16 0.14 0.28 0.63 1.36 1.93 2.21 2.20 1.62 1.10 0.90 0.80 0.71 0.65 0.58 0.50 0.41
0.10 0.07 0.04 0.03 0.05 0.08 0.11 0.16 0.21 0.30 0.40 0.44 0.40 0.28 0.28 0.33 0.35 0.37 0.27 0.26 0.27 0.16 0.13 0.32 0.74 1.32 1.89 2.40 2.36 1.75 1.26 1.01 0.92 0.84 0.77 0.68 0.57 0.46
0.06 0.05 0.04 0.05 0.07 0.09 0.11 0.17 0.27 0.34 0.38 0.38 0.41 0.40 0.43 0.38 0.29 0.26 0.23 0.28 0.27 0.14 0.11 0.34 0.77 1.27 1.76 2.15 2.22 1.73 1.31 1.09 0.98 0.88 0.77 0.66 0.57 0.49
0.03 0.04 0.06 0.09 0.09 0.16 0.22 0.32 0.48 0.62 0.60 0.57 0.57 0.64 0.64 0.47 0.28 0.22 0.25 0.27 0.22 0.12 0.12 0.32 0.67 1.04 1.43 1.71 1.77 1.59 1.30 1.12 0.97 0.84 0.71 0.60 0.52 0.47
0.02 0.05 0.09 0.14 0.15 0.26 0.33 0.45 0.64 0.78 0.67 0.58 0.59 0.67 0.59 0.49 0.46 0.40 0.32 0.23 0.15 0.11 0.14 0.29 0.50 0.69 1.10 1.40 1.28 1.11 1.04 1.06 1.00 0.89 0.74 0.58 0.42 0.33
0.05 0.09 0.14 0.21 0.21 0.32 0.48 0.59 0.80 0.89 0.72 0.54 0.46 0.45 0.45 0.44 0.42 0.42 0.31 0.18 0.11 0.09 0.14 0.24 0.40 0.52 0.71 1.02 1.15 1.03 0.84 0.80 0.82 0.88 0.87 0.69 0.46 0.32
0.11 0.19 0.23 0.25 0.28 0.45 0.58 0.76 1.00 1.04 0.73 0.47 0.30 0.26 0.27 0.32 0.33 0.28 0.19 0.11 0.09 0.10 0.15 0.20 0.33 0.48 0.49 0.56 0.84 0.92 0.84 0.79 0.73 0.73 0.75 0.70 0.56 0.49
0.14 0.29 0.32 0.29 0.44 0.64 0.85 1.00 1.10 1.00 0.69 0.41 0.26 0.21 0.19 0.19 0.21 0.21 0.17 0.11 0.10 0.12 0.15 0.18 0.26 0.39 0.38 0.36 0.51 0.59 0.72 0.86 0.77 0.71 0.65 0.56 0.50 0.46
0.11 0.24 0.35 0.41 0.57 0.80 0.97 1.04 1.03 0.94 0.70 0.44 0.31 0.25 0.20 0.19 0.20 0.18 0.16 0.13 0.13 0.18 0.19 0.18 0.23 0.29 0.33 0.32 0.35 0.41 0.47 0.73 0.78 0.65 0.58 0.55 0.52 0.48
0.13 0.18 0.26 0.38 0.55 0.72 0.83 0.85 0.81 0.76 0.66 0.47 0.35 0.29 0.26 0.23 0.23 0.20 0.17 0.14 0.15 0.17 0.20 0.21 0.24 0.26 0.29 0.29 0.31 0.35 0.40 0.53 0.60 0.51 0.42 0.45 0.50 0.48
0.15 0.23 0.35 0.47 0.61 0.70 0.74 0.73 0.66 0.60 0.52 0.42 0.35 0.31 0.27 0.24 0.24 0.20 0.15 0.13 0.13 0.14 0.15 0.16 0.16 0.16 0.21 0.28 0.29 0.27 0.30 0.36 0.41 0.36 0.27 0.28 0.37 0.40
0.16 0.27 0.39 0.52 0.63 0.66 0.65 0.61 0.56 0.50 0.42 0.34 0.31 0.28 0.25 0.22 0.19 0.16 0.13 0.11 0.11 0.10 0.10 0.11 0.09 0.05 0.06 0.18 0.29 0.23 0.20 0.22 0.24 0.26 0.22 0.19 0.24 0.29
0.20 0.31 0.39 0.46 0.54 0.58 0.56 0.54 0.50 0.44 0.35 0.29 0.28 0.26 0.22 0.18 0.15 0.12 0.10 0.08 0.07 0.06 0.05 0.05 0.04 0.03 0.01 0.05 0.15 0.19 0.15 0.14 0.14 0.16 0.17 0.16 0.16 0.16
0.24 0.30 0.35 0.38 0.41 0.44 0.44 0.42 0.39 0.36 0.30 0.26 0.24 0.24 0.23 0.18 0.13 0.09 0.07 0.05 0.04 0.03 0.03 0.04 0.03 0.02 0.01 0.01 0.04 0.08 0.10 0.10 0.10 0.10 0.09 0.10 0.09 0.09
0.23 0.29 0.31 0.31 0.30 0.30 0.29 0.27 0.26 0.25 0.23 0.22 0.22 0.21 0.20 0.16 0.11 0.07 0.05 0.04 0.03 0.02 0.01 0.02 0.01 0.01 0.01 0.01 0.02 0.03 0.04 0.04 0.04 0.04 0.04 0.04 0.04 0.06
0.20 0.23 0.25 0.26 0.25 0.22 0.21 0.20 0.20 0.21 0.19 0.19 0.19 0.18 0.16 0.14 0.10 0.07 0.04 0.02 0.01 0.01 0.01 0.01 0.01 0.00 0.00 0.00 0.00 0.01 0.01 0.01 0.01 0.01 0.01 0.01 0.01 0.01